(123292) = 2000 UT101 = 2002 CO238

Discovered at Socorro on 2000-10-25 by LINEAR.

Orbit

Orbit type: Main Belt

Note: WebGL enabled browser required.

epoch2023-09-13.0
epoch JD2460200.5
perihelion date2019-04-10.62078
perihelion JD2458584.12078
argument of perihelion (°)97.37132
ascending node (°)314.08657
inclination (°)5.04229
eccentricity0.1278866
perihelion distance (AU)2.4109671
Tisserand w.r.t. Jupiter3.3
ΔV w.r.t. Earth (km/sec)9.9
semimajor axis (AU)2.7645111
mean anomaly (°)346.59284
mean daily motion (°/day)0.21442550
aphelion distance (AU)3.118
period (years)4.6
P-vector [x]0.62033285
P-vector [y]0.68048710
P-vector [z]0.39003136
Q-vector [x]-0.78179384
Q-vector [y]0.57647592
Q-vector [z]0.23764238
absolute magnitude16.27
phase slope0.15
uncertainty0
referenceMPEC 2024-A55
observations used565
oppositions16
arc length (days)9833
first opposition used1997
last opposition used2024
residual rms (arc-secs)0.73
perturbers coarse indicatorM-v
perturbers precise indicator003Ek
first observation date used1997-02-01.0
last observation date used2024-01-04.0
computer nameMPCLINUX
JD of orbit computation2456877.800069
perihelion JD uncertainty (days)1.3445E-04
argument of perihelion uncertainty (°)6.5579E-05
ascending node uncertainty (°)5.7807E-05
inclination uncertainty (°)5.6154E-06
eccentricity uncertainty 5.5463E-08
perihelion distance uncertainty (AU)1.5653E-07
Minimum Orbit Intersection Distances (in AU)
for orbit epoch: 2460200.5, reference: E2024-A55
Mercury2.09737
Venus1.69498
Earth1.4271
Mars0.90196
Jupiter2.23888
Saturn6.50185
Uranus15.5106
Neptune27.357

Observations

573 total observations over interval: 1997 02 01.13863 – 2024 01 04.348009
These data are available for download (format description).

Date (UT) J2000 RA J2000 Dec Magn Location Ref
1997 02 01.13863 08 19 55.12 +20 45 51.4 20.8 V 691 – Steward Observatory, Kitt Peak-Spacewatch MPS 79812
1997 02 01.16085 08 19 53.81 +20 45 52.9 21.2 V 691 – Steward Observatory, Kitt Peak-Spacewatch MPS 79812
1997 02 01.18302 08 19 52.50 +20 45 54.4 21.3 V 691 – Steward Observatory, Kitt Peak-Spacewatch MPS 79812
1997 02 06.22307 08 15 12.12 +20 50 16.8 20.5 V 691 – Steward Observatory, Kitt Peak-Spacewatch MPS 54801
1997 02 06.24630 08 15 10.77 +20 50 18.0 20.7 V 691 – Steward Observatory, Kitt Peak-Spacewatch MPS 54801
1997 02 06.26892 08 15 09.50 +20 50 18.4 20.4 V 691 – Steward Observatory, Kitt Peak-Spacewatch MPS 54801
1997 02 14.11479 08 08 45.93 +20 53 37.7 22.1 V 691 – Steward Observatory, Kitt Peak-Spacewatch MPS 79812
1997 02 14.13762 08 08 44.84 +20 53 38.0 21.8 V 691 – Steward Observatory, Kitt Peak-Spacewatch MPS 79812
1997 02 14.16039 08 08 43.83 +20 53 38.3 21.7 V 691 – Steward Observatory, Kitt Peak-Spacewatch MPS 79812
2000 10 25.36874 03 00 28.95 +25 49 37.9 19.5   704 – Lincoln Laboratory ETS, New Mexico MPS 21670
2000 10 25.38726 03 00 28.02 +25 49 34.5 19.5   704 – Lincoln Laboratory ETS, New Mexico MPS 21670
2000 10 25.40187 03 00 27.22 +25 49 32.7 19.3   704 – Lincoln Laboratory ETS, New Mexico MPS 21670
2000 10 25.41604 03 00 26.49 +25 49 31.5 19.1   704 – Lincoln Laboratory ETS, New Mexico MPS 21670
2000 11 03.21874 02 52 30.31 +25 25 22.2 18.7   704 – Lincoln Laboratory ETS, New Mexico MPS 21670
2000 11 03.23222 02 52 29.55 +25 25 18.7 19.8   704 – Lincoln Laboratory ETS, New Mexico MPS 21670
2000 11 03.24571 02 52 28.74 +25 25 16.0 19.6   704 – Lincoln Laboratory ETS, New Mexico MPS 21670
2000 11 03.25920 02 52 27.97 +25 25 13.7 19.2   704 – Lincoln Laboratory ETS, New Mexico MPS 21670
2000 11 03.27269 02 52 27.09 +25 25 12.2 19.5   704 – Lincoln Laboratory ETS, New Mexico MPS 21670
2000 11 05.31296 02 50 31.51 +25 17 49.6 19.2   704 – Lincoln Laboratory ETS, New Mexico MPS 22709
2000 11 05.34045 02 50 29.86 +25 17 44.1 19.1   704 – Lincoln Laboratory ETS, New Mexico MPS 22709
2000 11 05.35428 02 50 29.01 +25 17 41.7 18.9   704 – Lincoln Laboratory ETS, New Mexico MPS 22709
2000 11 05.37079 02 50 28.01 +25 17 36.6 19.0   704 – Lincoln Laboratory ETS, New Mexico MPS 22709
2000 11 20.22454 02 36 59.48 +24 10 06.9 19.0   704 – Lincoln Laboratory ETS, New Mexico MPS 22709
2000 11 20.23940 02 36 58.76 +24 10 02.8 19.5   704 – Lincoln Laboratory ETS, New Mexico MPS 22709
2000 11 20.25427 02 36 58.02 +24 09 58.0 19.3   704 – Lincoln Laboratory ETS, New Mexico MPS 22709
2000 11 20.26912 02 36 57.21 +24 09 53.6 19.3   704 – Lincoln Laboratory ETS, New Mexico MPS 22709
2000 11 20.28398 02 36 56.51 +24 09 48.8 19.5   704 – Lincoln Laboratory ETS, New Mexico MPS 22709
2000 11 29.23933 02 30 26.05 +23 23 43.5 19.6   704 – Lincoln Laboratory ETS, New Mexico MPS 22709
2000 11 29.25499 02 30 25.52 +23 23 37.7 19.7   704 – Lincoln Laboratory ETS, New Mexico MPS 22709
2000 11 29.27163 02 30 24.79 +23 23 33.2 19.8   704 – Lincoln Laboratory ETS, New Mexico MPS 22709
2000 11 29.28751 02 30 24.22 +23 23 27.6 19.5   704 – Lincoln Laboratory ETS, New Mexico MPS 22709
2002 02 11.37982 11 18 27.04 +00 52 09.3 20.2   704 – Lincoln Laboratory ETS, New Mexico MPS 52769
2002 02 11.39420 11 18 26.33 +00 52 10.9 20.4   704 – Lincoln Laboratory ETS, New Mexico MPS 52769
2002 02 11.43747 11 18 24.51 +00 52 16.2 20.1   704 – Lincoln Laboratory ETS, New Mexico MPS 52769
2002 02 15.32724 11 15 38.05 +01 01 29.0 19.7   704 – Lincoln Laboratory ETS, New Mexico MPS 52769
2002 02 15.34187 11 15 37.39 +01 01 30.3 20.4   704 – Lincoln Laboratory ETS, New Mexico MPS 52769
2002 02 15.38499 11 15 35.45 +01 01 37.4 20.0   704 – Lincoln Laboratory ETS, New Mexico MPS 52769
2002 03 13.26079 10 53 42.79 +02 35 38.9 19.9   704 – Lincoln Laboratory ETS, New Mexico MPS 52769
2002 03 13.28841 10 53 41.29 +02 35 43.2 20.4   704 – Lincoln Laboratory ETS, New Mexico MPS 52769
2002 03 13.30227 10 53 40.63 +02 35 49.1 19.9   704 – Lincoln Laboratory ETS, New Mexico MPS 52769
2002 03 13.31619 10 53 39.91 +02 35 52.5 20.2   704 – Lincoln Laboratory ETS, New Mexico MPS 52769
2004 08 12.27681 22 18 18.52 -08 28 29.1 19.0 R 807 – Cerro Tololo Observatory, La Serena MPS 112595
2004 08 12.34629 22 18 15.04 -08 28 39.0   807 – Cerro Tololo Observatory, La Serena MPS 112595
2004 08 22.34513 22 09 41.34 -08 55 34.0 19.7 V 691 – Steward Observatory, Kitt Peak-Spacewatch MPS 112115
2004 08 22.37366 22 09 39.77 -08 55 38.7 19.7 V 691 – Steward Observatory, Kitt Peak-Spacewatch MPS 112115
2004 08 22.40156 22 09 38.24 -08 55 43.7 19.8 V 691 – Steward Observatory, Kitt Peak-Spacewatch MPS 112115
2005 12 26.22225 07 06 07.29 +27 11 06.4   691 – Steward Observatory, Kitt Peak-Spacewatch MPS 156385
2005 12 26.23977 07 06 06.20 +27 11 06.5   691 – Steward Observatory, Kitt Peak-Spacewatch MPS 156385
2005 12 26.25730 07 06 05.10 +27 11 06.9   691 – Steward Observatory, Kitt Peak-Spacewatch MPS 156385
2006 01 02.30544 06 58 42.20 +27 09 36.4 19.7 V G96 – Mt. Lemmon Survey MPS 157569
2006 01 02.31078 06 58 41.80 +27 09 36.1 19.6 V G96 – Mt. Lemmon Survey MPS 157569
2006 01 02.31613 06 58 41.44 +27 09 36.1 19.5 V G96 – Mt. Lemmon Survey MPS 157569
2006 01 05.17090 06 55 40.38 +27 07 55.7 19.8 V 691 – Steward Observatory, Kitt Peak-Spacewatch MPS 157569
2006 01 05.18821 06 55 39.26 +27 07 55.2 19.8 V 691 – Steward Observatory, Kitt Peak-Spacewatch MPS 157569
2006 01 05.20550 06 55 38.14 +27 07 54.7 19.9 V 691 – Steward Observatory, Kitt Peak-Spacewatch MPS 157569
2006 01 09.14606 06 51 31.58 +27 04 31.6 20.2 V 691 – Steward Observatory, Kitt Peak-Spacewatch MPS 158774
2006 01 09.16336 06 51 30.48 +27 04 30.9 20.1 V 691 – Steward Observatory, Kitt Peak-Spacewatch MPS 158774
2006 01 09.18066 06 51 29.39 +27 04 30.6 20.2 V 691 – Steward Observatory, Kitt Peak-Spacewatch MPS 158774
2007 03 16.37200 13 19 38.36 -15 10 40.0 20.6 V 691 – Steward Observatory, Kitt Peak-Spacewatch MPS 204321
2007 03 16.38971 13 19 37.62 -15 10 38.1 20.7 V 691 – Steward Observatory, Kitt Peak-Spacewatch MPS 204321
2007 03 16.40742 13 19 36.92 -15 10 35.5 20.5 V 691 – Steward Observatory, Kitt Peak-Spacewatch MPS 204321
2007 03 20.30656 13 16 54.81 -15 02 12.7 21.0 V 691 – Steward Observatory, Kitt Peak-Spacewatch MPS 205419
2007 03 20.32428 13 16 54.02 -15 02 10.3 20.9 V 691 – Steward Observatory, Kitt Peak-Spacewatch MPS 205419
2007 03 20.33955 13 16 53.33 -15 02 08.1 21.0 V 691 – Steward Observatory, Kitt Peak-Spacewatch MPS 205419
2009 09 21.95580 01 24 03.56 +16 29 23.5 19.2 V J75 – OAM Observatory, La Sagra MPS 296628
2009 09 21.96931 01 24 03.01 +16 29 22.9 19.2 V J75 – OAM Observatory, La Sagra MPS 296628
2009 09 21.98280 01 24 02.45 +16 29 21.9 19.0 V J75 – OAM Observatory, La Sagra MPS 296628
2009 09 26.28001 01 21 03.80 +16 23 48.5 19.2   704 – Lincoln Laboratory ETS, New Mexico MPS 297616
2009 09 26.29217 01 21 03.32 +16 23 47.8 19.8   704 – Lincoln Laboratory ETS, New Mexico MPS 297616
2009 09 26.30436 01 21 02.71 +16 23 45.9 19.0   704 – Lincoln Laboratory ETS, New Mexico MPS 297616
2009 09 26.31655 01 21 02.11 +16 23 45.0 19.7   704 – Lincoln Laboratory ETS, New Mexico MPS 297616
2009 10 09.36385 01 10 20.53 +15 47 54.7 18.9 V 703 – Catalina Sky Survey MPS 298166
2009 10 09.37181 01 10 20.10 +15 47 53.4 19.1 V 703 – Catalina Sky Survey MPS 298166
2009 10 09.37984 01 10 19.77 +15 47 52.6 18.9 V 703 – Catalina Sky Survey MPS 298166
2009 10 09.38788 01 10 19.27 +15 47 50.7 19.3 V 703 – Catalina Sky Survey MPS 298166
2009 10 09.39832 01 10 18.73 +15 47 48.1 18.6 V 703 – Catalina Sky Survey MPS 298166
2009 10 09.40684 01 10 18.22 +15 47 46.2 18.8 V 703 – Catalina Sky Survey MPS 298166
2009 10 09.41587 01 10 17.86 +15 47 44.2 18.6 V 703 – Catalina Sky Survey MPS 298166
2009 10 09.42454 01 10 17.29 +15 47 41.7 18.8 V 703 – Catalina Sky Survey MPS 298166
2009 10 16.22497 01 04 18.70 +15 19 42.8 19.1   704 – Lincoln Laboratory ETS, New Mexico MPS 300294
2009 10 16.23813 01 04 17.96 +15 19 40.4 19.1   704 – Lincoln Laboratory ETS, New Mexico MPS 300294
2009 10 16.25129 01 04 17.26 +15 19 36.8 19.1   704 – Lincoln Laboratory ETS, New Mexico MPS 300294
